Tracking 35055 objects as of 18-Aug-2026
HD Live streaming from Space Station
objects crossing your sky now

HELIOS

Track HELIOS now!
10-day predictions
HELIOS is classified as:


NORAD ID: 69021
Int'l Code: 2026-100AT
Launch date: May 3, 2026
Source: Greece (GREC)
Launch site: AIR FORCE WESTERN TEST RANGE (AFWTR)

Uplink (MHz):
Downlink (MHz): 2255.000
Beacon (MHz):
Mode: 50k_FSK
Call sign:
Status: Unknown

Your satellite tracking list
Your tracking list is empty




NASA's NSSDC Master Catalog

Two Line Element Set (TLE):
1 69021U 26100AT  26230.56552050  .00005882  00000-0  27036-3 0  9992
2 69021  97.3931 127.1709 0006230 117.7862 242.4006 15.20722117 16285
Source of the keplerian elements: AFSPC